| time (UTC) | temp C | wind direction | speed KPH | gust KPH | rain 1hr cm | rain 24hr cm | rain mn cm | humidity % | barometer mb |
| 20260503215143 | 14 | 35 | 0.0 | 0.0 | 0.00 | 0.03 | 0.03 | 71 | 1013.0 |
| 20260503214143 | 14 | 65 | 0.0 | 0.0 | 0.00 | 0.03 | 0.03 | 74 | 1013.0 |
| 20260503213141 | 14 | 32 | 0.0 | 0.0 | 0.00 | 0.03 | 0.03 | 72 | 1012.9 |
| 20260503212641 | 14 | 34 | 0.0 | 0.0 | 0.00 | 0.03 | 0.03 | 74 | 1013.1 |
| 20260503212140 | 13 | 153 | 0.0 | 0.0 | 0.00 | 0.03 | 0.03 | 74 | 1013.1 |
| 20260503211641 | 13 | 154 | 0.0 | 0.0 | 0.00 | 0.03 | 0.03 | 73 | 1013.1 |
| 20260503210641 | 13 | 155 | 0.0 | 0.0 | 0.00 | 0.03 | 0.03 | 74 | 1013.1 |
| 20260503210141 | 13 | 32 | 0.0 | 0.0 | 0.00 | 0.03 | 0.03 | 73 | 1013.0 |
| 20260503204640 | 13 | 13 | 0.0 | 0.0 | 0.00 | 0.03 | 0.03 | 76 | 1013.1 |
| 20260503204139 | 13 | 49 | 0.0 | 0.0 | 0.00 | 0.03 | 0.03 | 75 | 1013.2 |
| 20260503203639 | 13 | 29 | 0.0 | 0.0 | 0.00 | 0.03 | 0.03 | 73 | 1013.2 |
| 20260503203137 | 13 | 349 | 0.0 | 0.0 | 0.00 | 0.03 | 0.03 | 73 | 1013.2 |
| 20260503201637 | 13 | 291 | 0.0 | 0.0 | 0.00 | 0.03 | 0.03 | 73 | 1013.3 |
| 20260503201137 | 13 | 43 | 0.0 | 1.6 | 0.00 | 0.03 | 0.03 | 73 | 1013.3 |
| 20260503200634 | 14 | 354 | 0.0 | 1.6 | 0.00 | 0.03 | 0.03 | 74 | 1013.4 |
| 20260503200135 | 14 | 288 | 0.0 | 0.0 | 0.00 | 0.03 | 0.03 | 75 | 1013.2 |
| 20260503195633 | 14 | 43 | 0.0 | 0.0 | 0.00 | 0.03 | 0.03 | 74 | 1013.2 |
| 20260503195133 | 14 | 30 | 0.0 | 0.0 | 0.00 | 0.03 | 0.03 | 74 | 1013.2 |
| 20260503194633 | 14 | 77 | 0.0 | 0.0 | 0.00 | 0.03 | 0.03 | 74 | 1013.4 |
| 20260503194132 | 13 | 271 | 0.0 | 0.0 | 0.00 | 0.03 | 0.03 | 73 | 1013.4 |
| 20260503192629 | 13 | 24 | 0.0 | 0.0 | 0.00 | 0.03 | 0.03 | 73 | 1013.3 |
| 20260503192126 | 13 | 69 | 0.0 | 0.0 | 0.00 | 0.03 | 0.03 | 74 | 1013.4 |
| 20260503191627 | 14 | 53 | 0.0 | 1.6 | 0.00 | 0.03 | 0.03 | 74 | 1013.4 |
| 20260503191126 | 14 | 90 | 0.0 | 1.6 | 0.00 | 0.03 | 0.03 | 71 | 1013.4 |
| 20260503190625 | 14 | 67 | 0.0 | 0.0 | 0.00 | 0.03 | 0.03 | 75 | 1013.4 |
| 20260503190124 | 14 | 4 | 0.0 | 0.0 | 0.00 | 0.03 | 0.03 | 74 | 1013.4 |
| 20260503185622 | 13 | 48 | 0.0 | 1.6 | 0.00 | 0.03 | 0.03 | 77 | 1013.4 |
| 20260503185123 | 13 | 217 | 0.0 | 1.6 | 0.00 | 0.03 | 0.03 | 76 | 1013.4 |
| 20260503184623 | 13 | 68 | 0.0 | 1.6 | 0.00 | 0.03 | 0.03 | 76 | 1013.3 |
| 20260503184123 | 13 | 356 | 0.0 | 1.6 | 0.00 | 0.03 | 0.03 | 76 | 1013.3 |
| 20260503183622 | 13 | 123 | 0.0 | 1.6 | 0.00 | 0.03 | 0.03 | 76 | 1013.4 |
| 20260503182622 | 13 | 30 | 0.0 | 1.6 | 0.00 | 0.03 | 0.03 | 77 | 1013.3 |
| 20260503181622 | 12 | 37 | 0.0 | 0.0 | 0.00 | 0.03 | 0.03 | 78 | 1013.3 |
| 20260503181123 | 12 | 30 | 0.0 | 0.0 | 0.00 | 0.03 | 0.03 | 78 | 1013.3 |
| 20260503180620 | 12 | 51 | 0.0 | 1.6 | 0.00 | 0.03 | 0.03 | 79 | 1013.3 |
| 20260503175620 | 12 | 74 | 0.0 | 0.0 | 0.00 | 0.03 | 0.03 | 81 | 1013.3 |
| 20260503175120 | 12 | 20 | 0.0 | 1.6 | 0.00 | 0.03 | 0.03 | 80 | 1013.3 |
| 20260503174620 | 12 | 313 | 0.0 | 1.6 | 0.00 | 0.03 | 0.03 | 80 | 1013.4 |
| 20260503174121 | 12 | 27 | 0.0 | 1.6 | 0.00 | 0.03 | 0.03 | 80 | 1013.4 |
| 20260503173620 | 12 | 103 | 0.0 | 0.0 | 0.00 | 0.03 | 0.03 | 83 | 1013.3 |
| 20260503173121 | 12 | 197 | 0.0 | 0.0 | 0.03 | 0.03 | 0.03 | 84 | 1013.2 |
| 20260503172620 | 12 | 56 | 0.0 | 0.0 | 0.03 | 0.03 | 0.03 | 83 | 1013.2 |
| 20260503172120 | 11 | 49 | 0.0 | 0.0 | 0.03 | 0.03 | 0.03 | 85 | 1013.2 |
| 20260503171620 | 11 | 63 | 0.0 | 0.0 | 0.03 | 0.03 | 0.03 | 86 | 1013.2 |
| 20260503171120 | 11 | 20 | 0.0 | 0.0 | 0.03 | 0.03 | 0.03 | 87 | 1013.2 |
| 20260503170621 | 11 | 38 | 0.0 | 0.0 | 0.03 | 0.03 | 0.03 | 90 | 1013.4 |
| 20260503170120 | 11 | 51 | 0.0 | 0.0 | 0.03 | 0.03 | 0.03 | 91 | 1013.3 |
| 20260503150114 | 10 | 57 | 0.0 | 0.0 | 0.00 | 0.00 | 0.00 | 92 | 1012.6 |
| 20260503140110 | 10 | 189 | 0.0 | 0.0 | 0.00 | 0.00 | 0.00 | 92 | 1011.9 |
| 20260503130610 | 10 | 189 | 0.0 | 0.0 | 0.00 | 0.00 | 0.00 | 92 | 1011.2 |
| 20260503130108 | 10 | 189 | 0.0 | 0.0 | 0.00 | 0.00 | 0.00 | 92 | 1011.2 |
| 20260503110545 | 10 | 189 | 0.0 | 0.0 | 0.00 | 0.00 | 0.00 | 92 | 1011.5 |
| 20260503081537 | 10 | 37 | 0.0 | 0.0 | 0.00 | 0.00 | 0.00 | 90 | 1012.1 |
| 20260503081035 | 10 | 38 | 0.0 | 0.0 | 0.00 | 0.00 | 0.00 | 90 | 1012.1 |
| 20260503080535 | 10 | 18 | 0.0 | 0.0 | 0.00 | 0.00 | 0.00 | 90 | 1012.1 |
| 20260503072536 | 10 | 56 | 0.0 | 0.0 | 0.00 | 0.00 | 0.00 | 90 | 1012.2 |
| 20260503072035 | 10 | 56 | 0.0 | 0.0 | 0.00 | 0.00 | 0.00 | 90 | 1012.2 |
| 20260503071535 | 10 | 56 | 0.0 | 0.0 | 0.00 | 0.00 | 0.00 | 90 | 1012.1 |
| 20260503071035 | 10 | 56 | 0.0 | 0.0 | 0.00 | 0.00 | 0.00 | 90 | 1012.2 |
| 20260503070535 | 10 | 44 | 0.0 | 0.0 | 0.00 | 0.00 | 0.00 | 90 | 1012.2 |
| 20260503054034 | 10 | 56 | 0.0 | 0.0 | 0.00 | 0.00 | 0.00 | 89 | 1012.6 |
| 20260503053535 | 10 | 56 | 0.0 | 0.0 | 0.00 | 0.00 | 0.00 | 89 | 1012.5 |
| 20260503053035 | 10 | 49 | 0.0 | 0.0 | 0.00 | 0.00 | 0.00 | 89 | 1012.6 |
| 20260503052534 | 10 | 49 | 0.0 | 0.0 | 0.00 | 0.00 | 0.00 | 89 | 1012.6 |
| 20260503052035 | 10 | 49 | 0.0 | 0.0 | 0.00 | 0.00 | 0.00 | 89 | 1012.7 |
| 20260503051534 | 10 | 49 | 0.0 | 0.0 | 0.00 | 0.00 | 0.00 | 89 | 1012.7 |
| 20260503051034 | 10 | 237 | 0.0 | 0.0 | 0.00 | 0.00 | 0.00 | 88 | 1012.5 |
| 20260503050034 | 10 | 244 | 0.0 | 0.0 | 0.00 | 0.00 | 0.00 | 88 | 1012.7 |
| 20260503045534 | 10 | 266 | 0.0 | 0.0 | 0.00 | 0.00 | 0.00 | 88 | 1012.4 |
| 20260503045032 | 10 | 56 | 0.0 | 0.0 | 0.00 | 0.00 | 0.00 | 88 | 1012.5 |
| 20260503044532 | 10 | 56 | 0.0 | 0.0 | 0.00 | 0.00 | 0.00 | 88 | 1012.5 |
| 20260503043031 | 10 | 103 | 0.0 | 0.0 | 0.00 | 0.00 | 0.00 | 87 | 1012.3 |
| 20260503042031 | 11 | 77 | 0.0 | 0.0 | 0.00 | 0.00 | 0.00 | 87 | 1012.2 |
| 20260503041028 | 11 | 119 | 0.0 | 0.0 | 0.00 | 0.00 | 0.00 | 87 | 1012.2 |
| 20260503040528 | 11 | 273 | 0.0 | 0.0 | 0.00 | 0.00 | 0.00 | 87 | 1012.1 |
| 20260503040026 | 11 | 330 | 0.0 | 1.6 | 0.00 | 0.00 | 0.00 | 87 | 1012.1 |
| 20260503034526 | 11 | 257 | 0.0 | 3.2 | 0.00 | 0.00 | 0.00 | 86 | 1011.9 |
| 20260503033025 | 11 | 218 | 0.0 | 0.0 | 0.00 | 0.00 | 0.00 | 86 | 1011.8 |
| 20260503032524 | 11 | 211 | 0.0 | 0.0 | 0.00 | 0.00 | 0.00 | 86 | 1011.8 |
| 20260503032021 | 11 | 214 | 0.0 | 0.0 | 0.00 | 0.00 | 0.00 | 86 | 1011.8 |
| 20260503031021 | 11 | 187 | 0.0 | 0.0 | 0.00 | 0.00 | 0.00 | 86 | 1011.7 |
| 20260503030522 | 12 | 210 | 0.0 | 0.0 | 0.00 | 0.00 | 0.00 | 86 | 1011.7 |
| 20260503030022 | 12 | 240 | 0.0 | 1.6 | 0.00 | 0.00 | 0.00 | 86 | 1011.6 |
| 20260503025024 | 12 | 233 | 0.0 | 0.0 | 0.00 | 0.00 | 0.00 | 85 | 1011.5 |
| 20260503024521 | 12 | 205 | 0.0 | 0.0 | 0.00 | 0.00 | 0.00 | 85 | 1011.5 |
| 20260503024022 | 12 | 194 | 0.0 | 0.0 | 0.00 | 0.00 | 0.00 | 85 | 1011.5 |
| 20260503023522 | 12 | 218 | 0.0 | 0.0 | 0.00 | 0.00 | 0.00 | 85 | 1011.4 |
| 20260503023020 | 12 | 167 | 0.0 | 0.0 | 0.00 | 0.00 | 0.00 | 85 | 1011.4 |
| 20260503022520 | 12 | 199 | 0.0 | 0.0 | 0.00 | 0.00 | 0.00 | 84 | 1011.4 |
| 20260503022020 | 12 | 229 | 0.0 | 1.6 | 0.00 | 0.00 | 0.00 | 84 | 1011.4 |
| 20260503021520 | 12 | 199 | 0.0 | 1.6 | 0.00 | 0.00 | 0.00 | 84 | 1011.4 |
| 20260503021020 | 12 | 218 | 0.0 | 1.6 | 0.00 | 0.00 | 0.00 | 84 | 1011.4 |
| 20260503020519 | 13 | 218 | 0.0 | 1.6 | 0.00 | 0.00 | 0.00 | 83 | 1011.4 |
| 20260503020020 | 13 | 176 | 0.0 | 3.2 | 0.00 | 0.00 | 0.00 | 83 | 1011.5 |
| 20260503015520 | 13 | 219 | 0.0 | 3.2 | 0.00 | 0.00 | 0.00 | 83 | 1011.4 |
| 20260503015020 | 13 | 141 | 0.0 | 1.6 | 0.00 | 0.00 | 0.00 | 83 | 1011.4 |
| 20260503014519 | 13 | 220 | 0.0 | 1.6 | 0.00 | 0.00 | 0.00 | 82 | 1011.6 |
| 20260503014018 | 13 | 212 | 0.0 | 0.0 | 0.00 | 0.00 | 0.00 | 82 | 1011.4 |
| 20260503013517 | 13 | 191 | 0.0 | 0.0 | 0.00 | 0.00 | 0.00 | 82 | 1011.5 |
| 20260503013018 | 13 | 193 | 0.0 | 6.4 | 0.00 | 0.00 | 0.00 | 82 | 1011.5 |
| 20260503012518 | 13 | 221 | 0.0 | 6.4 | 0.00 | 0.00 | 0.00 | 81 | 1011.4 |
| 20260503012016 | 14 | 141 | 0.0 | 1.6 | 0.00 | 0.00 | 0.00 | 81 | 1011.5 |
| 20260503011516 | 14 | 233 | 0.0 | 1.6 | 0.00 | 0.00 | 0.00 | 81 | 1011.5 |
| 20260503011016 | 14 | 163 | 0.0 | 1.6 | 0.00 | 0.00 | 0.00 | 80 | 1011.5 |
| 20260503010515 | 14 | 124 | 0.0 | 1.6 | 0.00 | 0.00 | 0.00 | 80 | 1011.5 |
| 20260503005514 | 15 | 158 | 0.0 | 1.6 | 0.00 | 0.00 | 0.00 | 79 | 1011.5 |
| 20260503005011 | 15 | 236 | 0.0 | 1.6 | 0.00 | 0.00 | 0.00 | 80 | 1011.5 |
| 20260503004012 | 15 | 47 | 0.0 | 0.0 | 0.00 | 0.00 | 0.00 | 79 | 1011.4 |
| 20260503003511 | 15 | 117 | 0.0 | 0.0 | 0.00 | 0.00 | 0.00 | 79 | 1011.5 |
| 20260503003009 | 15 | 233 | 0.0 | 0.0 | 0.00 | 0.00 | 0.00 | 79 | 1011.5 |
| 20260503002510 | 15 | 67 | 0.0 | 0.0 | 0.00 | 0.00 | 0.00 | 79 | 1011.5 |
| 20260503002010 | 15 | 294 | 0.0 | 3.2 | 0.00 | 0.00 | 0.00 | 79 | 1011.7 |
| 20260503001507 | 15 | 320 | 0.0 | 3.2 | 0.00 | 0.00 | 0.00 | 78 | 1011.6 |
| 20260503001008 | 16 | 217 | 0.0 | 0.0 | 0.00 | 0.00 | 0.00 | 77 | 1011.6 |
| 20260503000507 | 16 | 102 | 0.0 | 0.0 | 0.00 | 0.00 | 0.00 | 77 | 1011.7 |
| 20260503000008 | 16 | 108 | 0.0 | 0.0 | 0.00 | 0.00 | 0.00 | 77 | 1011.6 |
| 20260502235507 | 16 | 100 | 0.0 | 1.6 | 0.00 | 0.00 | 0.00 | 76 | 1011.6 |
| 20260502235008 | 16 | 136 | 0.0 | 1.6 | 0.00 | 0.00 | 0.00 | 76 | 1011.6 |
| 20260502234508 | 16 | 125 | 0.0 | 0.0 | 0.00 | 0.00 | 0.00 | 76 | 1011.6 |
| 20260502234006 | 16 | 56 | 0.0 | 0.0 | 0.00 | 0.00 | 0.00 | 76 | 1011.7 |
| 20260502233001 | 16 | 55 | 0.0 | 1.6 | 0.00 | 0.00 | 0.00 | 76 | 1011.8 |
| 20260502232459 | 17 | 103 | 0.0 | 0.0 | 0.00 | 0.00 | 0.00 | 76 | 1011.8 |
| 20260502232000 | 17 | 211 | 0.0 | 0.0 | 0.00 | 0.00 | 0.00 | 76 | 1011.9 |
| 20260502231001 | 17 | 92 | 0.0 | 0.0 | 0.00 | 0.00 | 0.00 | 75 | 1011.9 |
| 20260502230500 | 17 | 108 | 0.0 | 3.2 | 0.00 | 0.00 | 0.00 | 74 | 1011.9 |
| 20260502225959 | 17 | 52 | 0.0 | 3.2 | 0.00 | 0.00 | 0.00 | 74 | 1012.0 |
| 20260502225500 | 17 | 136 | 0.0 | 0.0 | 0.00 | 0.00 | 0.00 | 74 | 1012.1 |
| 20260502224959 | 17 | 101 | 0.0 | 0.0 | 0.00 | 0.00 | 0.00 | 74 | 1012.1 |
| 20260502224459 | 17 | 224 | 0.0 | 0.0 | 0.00 | 0.00 | 0.00 | 74 | 1012.2 |
| 20260502224000 | 17 | 233 | 0.0 | 0.0 | 0.00 | 0.00 | 0.00 | 74 | 1012.3 |
| 20260502222959 | 17 | 122 | 0.0 | 0.0 | 0.00 | 0.00 | 0.00 | 73 | 1012.3 |
| 20260502222500 | 18 | 68 | 0.0 | 0.0 | 0.00 | 0.00 | 0.00 | 73 | 1012.5 |
| 20260502221959 | 17 | 209 | 0.0 | 0.0 | 0.00 | 0.00 | 0.00 | 74 | 1012.5 |
| 20260502220959 | 17 | 84 | 0.0 | 0.0 | 0.00 | 0.00 | 0.00 | 74 | 1012.7 |
| 20260502220459 | 17 | 213 | 0.0 | 0.0 | 0.00 | 0.00 | 0.00 | 75 | 1012.6 |
| 20260502220000 | 17 | 126 | 0.0 | 0.0 | 0.00 | 0.00 | 0.00 | 75 | 1012.7 |
| 20260502215500 | 17 | 23 | 0.0 | 0.0 | 0.00 | 0.00 | 0.00 | 76 | 1012.7 |